When you browse on this site, cookies collect data to enhance your experience and personalize the content and advertising you see.
Visit our Privacy Policy to learn more. By continuing to use the site, you agree to this use of cookies and data.
  • In United Kingdom
  • List of Countries
  • For 7 days
  • Water Temperature
  • Satellite Maps
  • Weather Map
  • Weather Widgets
  • user-avatar
    Login

    Hourly Weather Aracaju

    Today, 21 November, Wednesday

    Time Temperature Precipitation Wind Pressure Humidity
    00:00 +27°C° 0 mm 4 mps 760 mmHg 84%
    01:00 +26°C° 0 mm 4 mps 760 mmHg 85%
    02:00 +26°C° 0 mm 4 mps 760 mmHg 85%
    03:00 +26°C° 0 mm 4 mps 759 mmHg 86%
    04:00 +26°C° 0 mm 4 mps 759 mmHg 86%
    05:00 +26°C° 0.1 mm 4 mps 759 mmHg 85%
    06:00 +27°C° 0.1 mm 3 mps 759 mmHg 83%
    07:00 +27°C° 0.1 mm 3 mps 759 mmHg 81%
    08:00 +29°C° 0.1 mm 4 mps 760 mmHg 74%
    09:00 +30°C° 0.1 mm 5 mps 760 mmHg 67%
    10:00 +33°C° 0.1 mm 6 mps 760 mmHg 60%
    11:00 +33°C° 0.1 mm 6 mps 760 mmHg 59%
    12:00 +33°C° 0.1 mm 6 mps 760 mmHg 59%
    13:00 +34°C° 0.1 mm 6 mps 759 mmHg 58%
    14:00 +33°C° 0 mm 6 mps 759 mmHg 59%
    15:00 +33°C° 0 mm 6 mps 758 mmHg 61%
    16:00 +32°C° 0 mm 6 mps 758 mmHg 63%
    17:00 +30°C° 0.1 mm 6 mps 758 mmHg 68%
    18:00 +29°C° 0.1 mm 6 mps 759 mmHg 74%
    19:00 +28°C° 0.1 mm 5 mps 759 mmHg 79%
    20:00 +28°C° 0.1 mm 5 mps 759 mmHg 81%
    21:00 +27°C° 0.1 mm 5 mps 760 mmHg 84%
    22:00 +27°C° 0.1 mm 5 mps 760 mmHg 86%
    23:00 +27°C° 0.1 mm 5 mps 760 mmHg 87%

    Tomorrow, 22 November, Thursday

    Time Temperature Precipitation Wind Pressure Humidity
    00:00 +27°C° 0.1 mm 5 mps 760 mmHg 87%
    01:00 +27°C° 0.1 mm 5 mps 759 mmHg 88%
    02:00 +26°C° 0.1 mm 5 mps 759 mmHg 88%
    03:00 +26°C° 0.1 mm 4 mps 759 mmHg 89%
    04:00 +26°C° 0.1 mm 4 mps 758 mmHg 89%
    05:00 +26°C° 0.1 mm 4 mps 758 mmHg 87%
    06:00 +27°C° 0.1 mm 4 mps 759 mmHg 86%
    07:00 +27°C° 0.1 mm 4 mps 759 mmHg 84%
    08:00 +28°C° 0.1 mm 5 mps 759 mmHg 78%
    09:00 +30°C° 0.1 mm 5 mps 760 mmHg 71%
    10:00 +32°C° 0.1 mm 5 mps 760 mmHg 64%
    11:00 +32°C° 0.1 mm 6 mps 760 mmHg 62%
    12:00 +33°C° 0.1 mm 6 mps 759 mmHg 59%
    13:00 +33°C° 0.1 mm 6 mps 759 mmHg 57%
    14:00 +33°C° 0.1 mm 6 mps 759 mmHg 58%
    15:00 +33°C° 0.1 mm 6 mps 758 mmHg 59%
    16:00 +32°C° 0.1 mm 6 mps 757 mmHg 61%
    17:00 +30°C° 0.1 mm 6 mps 758 mmHg 66%
    18:00 +29°C° 0.1 mm 6 mps 758 mmHg 71%
    19:00 +28°C° 0.1 mm 5 mps 758 mmHg 77%
    20:00 +28°C° 0.1 mm 5 mps 759 mmHg 79%
    21:00 +27°C° 0.1 mm 5 mps 759 mmHg 81%
    22:00 +27°C° 0.1 mm 5 mps 760 mmHg 83%
    23:00 +27°C° 0.1 mm 4 mps 760 mmHg 84%

    Day after tomorrow, 23 November, Friday

    Time Temperature Precipitation Wind Pressure Humidity
    00:00 +27°C° 0.1 mm 4 mps 759 mmHg 84%
    01:00 +27°C° 0.1 mm 4 mps 759 mmHg 84%
    02:00 +26°C° 0.1 mm 4 mps 758 mmHg 85%
    03:00 +26°C° 0.1 mm 4 mps 758 mmHg 85%
    04:00 +26°C° 0.1 mm 4 mps 757 mmHg 85%
    05:00 +26°C° 0.1 mm 4 mps 758 mmHg 84%
    06:00 +27°C° 0.1 mm 4 mps 758 mmHg 82%
    07:00 +27°C° 0.1 mm 4 mps 758 mmHg 80%
    08:00 +28°C° 0.1 mm 4 mps 759 mmHg 75%
    09:00 +30°C° 0.1 mm 5 mps 759 mmHg 69%
    10:00 +32°C° 0.1 mm 5 mps 759 mmHg 63%
    11:00 +33°C° 0.1 mm 5 mps 759 mmHg 60%
    12:00 +33°C° 0.1 mm 5 mps 758 mmHg 57%
    13:00 +34°C° 0.1 mm 5 mps 758 mmHg 53%
    14:00 +34°C° 0 mm 5 mps 757 mmHg 55%
    15:00 +33°C° 0 mm 5 mps 757 mmHg 57%
    16:00 +33°C° 0 mm 5 mps 756 mmHg 58%
    17:00 +32°C° 0 mm 5 mps 757 mmHg 63%
    18:00 +29°C° 0 mm 5 mps 757 mmHg 68%
    19:00 +28°C° 0 mm 4 mps 757 mmHg 73%
    20:00 +28°C° 0 mm 4 mps 758 mmHg 75%
    21:00 +28°C° 0 mm 4 mps 758 mmHg 77%
    22:00 +28°C° 0 mm 4 mps 759 mmHg 79%
    23:00 +27°C° 0 mm 4 mps 759 mmHg 81%

    24 November, Saturday

    Time Temperature Precipitation Wind Pressure Humidity
    00:00 +27°C° 0 mm 4 mps 758 mmHg 82%
    01:00 +27°C° 0 mm 4 mps 758 mmHg 83%
    02:00 +27°C° 0.1 mm 4 mps 758 mmHg 84%
    03:00 +27°C° 0.1 mm 4 mps 757 mmHg 85%
    04:00 +27°C° 0.1 mm 4 mps 757 mmHg 86%
    05:00 +27°C° 0.6 mm 4 mps 757 mmHg 85%
    06:00 +27°C° 0.6 mm 4 mps 758 mmHg 84%
    07:00 +27°C° 0.6 mm 3 mps 758 mmHg 83%
    08:00 +29°C° 0.3 mm 4 mps 758 mmHg 77%
    09:00 +30°C° 0.3 mm 4 mps 759 mmHg 71%
    10:00 +32°C° 0.3 mm 4 mps 759 mmHg 64%
    11:00 +33°C° 0.1 mm 5 mps 758 mmHg 62%
    12:00 +33°C° 0.1 mm 5 mps 758 mmHg 59%
    13:00 +34°C° 0.1 mm 5 mps 757 mmHg 56%
    14:00 +34°C° 0 mm 5 mps 757 mmHg 58%
    15:00 +33°C° 0 mm 6 mps 756 mmHg 59%
    16:00 +33°C° 0 mm 6 mps 756 mmHg 61%
    17:00 +32°C° 0 mm 5 mps 756 mmHg 66%
    18:00 +30°C° 0 mm 5 mps 757 mmHg 72%
    19:00 +28°C° 0 mm 5 mps 757 mmHg 77%
    20:00 +28°C° 0 mm 4 mps 758 mmHg 79%
    21:00 +28°C° 0 mm 4 mps 758 mmHg 82%
    22:00 +28°C° 0 mm 4 mps 759 mmHg 84%
    23:00 +27°C° 0 mm 4 mps 758 mmHg 85%

    25 November, Sunday

    Time Temperature Precipitation Wind Pressure Humidity
    00:00 +27°C° 0 mm 4 mps 758 mmHg 86%
    01:00 +27°C° 0 mm 4 mps 758 mmHg 87%
    02:00 +27°C° 0 mm 4 mps 757 mmHg 87%
    03:00 +27°C° 0 mm 4 mps 757 mmHg 88%
    04:00 +26°C° 0 mm 3 mps 757 mmHg 88%
    05:00 +27°C° 0.1 mm 3 mps 757 mmHg 87%
    06:00 +27°C° 0.1 mm 3 mps 758 mmHg 85%
    07:00 +27°C° 0.1 mm 3 mps 758 mmHg 84%
    08:00 +29°C° 0.1 mm 4 mps 758 mmHg 77%
    09:00 +30°C° 0.1 mm 4 mps 758 mmHg 70%
    10:00 +33°C° 0.1 mm 4 mps 758 mmHg 63%
    11:00 +33°C° 0.1 mm 5 mps 758 mmHg 63%
    12:00 +33°C° 0.1 mm 5 mps 757 mmHg 62%
    13:00 +33°C° 0.1 mm 5 mps 757 mmHg 62%
    14:00 +33°C° 0.1 mm 5 mps 756 mmHg 63%
    15:00 +33°C° 0.1 mm 5 mps 756 mmHg 64%
    16:00 +32°C° 0.1 mm 6 mps 755 mmHg 66%
    17:00 +30°C° 0 mm 6 mps 756 mmHg 70%
    18:00 +29°C° 0 mm 5 mps 756 mmHg 74%
    19:00 +28°C° 0 mm 5 mps 756 mmHg 78%
    20:00 +28°C° 0 mm 5 mps 757 mmHg 81%
    21:00 +28°C° 0 mm 5 mps 757 mmHg 83%
    22:00 +27°C° 0 mm 4 mps 757 mmHg 85%
    23:00 +27°C° 0.1 mm 4 mps 757 mmHg 86%

    26 November, Monday

    Time Temperature Precipitation Wind Pressure Humidity
    00:00 +27°C° 0.1 mm 4 mps 757 mmHg 88%
    01:00 +27°C° 0.1 mm 4 mps 757 mmHg 89%
    02:00 +27°C° 0.1 mm 4 mps 756 mmHg 89%
    03:00 +27°C° 0.1 mm 4 mps 756 mmHg 90%
    04:00 +26°C° 0.1 mm 4 mps 756 mmHg 90%
    05:00 +27°C° 0.1 mm 4 mps 756 mmHg 89%
    06:00 +27°C° 0.1 mm 4 mps 756 mmHg 87%
    07:00 +27°C° 0.1 mm 4 mps 757 mmHg 86%
    08:00 +29°C° 0.1 mm 4 mps 757 mmHg 80%
    09:00 +30°C° 0.1 mm 5 mps 757 mmHg 73%
    10:00 +32°C° 0.1 mm 5 mps 757 mmHg 67%
    11:00 +33°C° 0.1 mm 5 mps 757 mmHg 65%
    12:00 +33°C° 0.1 mm 6 mps 756 mmHg 63%
    13:00 +33°C° 0.1 mm 6 mps 756 mmHg 61%
    14:00 +33°C° 0 mm 6 mps 755 mmHg 61%
    15:00 +33°C° 0 mm 6 mps 755 mmHg 61%
    16:00 +33°C° 0 mm 6 mps 755 mmHg 62%
    17:00 +32°C° 0 mm 6 mps 755 mmHg 67%
    18:00 +30°C° 0 mm 5 mps 755 mmHg 72%
    19:00 +29°C° 0 mm 5 mps 756 mmHg 77%
    20:00 +29°C° 0 mm 5 mps 756 mmHg 78%
    21:00 +28°C° 0 mm 5 mps 757 mmHg 80%
    22:00 +28°C° 0 mm 4 mps 757 mmHg 82%
    23:00 +28°C° 0 mm 4 mps 757 mmHg 83%
    Show more